Regional Weather Roundup
Issued by NWS Midland/Odessa, TX

Skip options and go directly to product.
Home | Oldest Version | Previous Version | Current Version | All | Text Only | Save Text | Print | Product List | Glossary Off

Skip product version selection by date and time.   

932
ASUS44 KMAF 271010
RWRMAF
MIDLAND AREA WEATHER ROUNDUP
NATIONAL WEATHER SERVICE MIDLAND TX
500 AM CDT TUE SEP 27 2016

...IN SOUTHWEST TEXAS AND SOUTHEAST NEW MEXICO...

CITY           SKY/WX    TMP DP  RH WIND       PRES   REMARKS
ALPINE         CLOUDY    49  49  98 NE3       30.34F
ANDREWS        RAIN      57  57 100 W6        30.26F
ARTESIA        CLOUDY    55  52  88 SE7       30.27F
BIG SPRING     MOCLDY    58  54  88 SW6       30.26S
CARLSBAD       CLOUDY    55  53  93 S3        30.25F
DRYDEN           N/A     60  50  69 N15       30.19F
FORT STOCKTON  CLOUDY    52  50  93 NW5       30.27F
GUAD PASS      CLOUDY    48  41  76 E14       30.31S
HOBBS          CLOUDY    55  55 100 CALM      30.28F
MARFA          CLOUDY   N/A N/A N/A CALM      30.30F
MIDLAND AIRPK  DRIZZLE   57  50  77 SW6       30.26S
MIDLAND INTL   LGT RAIN  55  49  80 SW6       30.25F
ODESSA         LGT RAIN  55  51  86 SW3       30.26F
PECOS          CLOUDY    56  52  85 CALM        N/A
PRESIDIO       CLOUDY    59  50  72 N3        30.23
SEMINOLE       CLOUDY    57  53  85 CALM      30.27F
SNYDER           N/A     58  48  69 CALM      30.22F
WINK           MOCLDY    54  52  93 W5        30.25F
$$
...OTHER STATIONS IN TEXAS...

CITY           SKY/WX    TMP DP  RH WIND       PRES   REMARKS
ABILENE        CLOUDY    59  55  87 CALM      30.19F
AMARILLO       CLOUDY    53  38  56 W6        30.25F
AUSTIN         CLOUDY    68  64  87 N8        30.08S
BROWNSVILLE    PTCLDY    76  74  93 N10       29.93F
CORPUS CHRISTI CLOUDY    71  68  90 N14       30.00F
DALLAS FTW     CLOUDY    68  58  70 N9        30.11S
DEL RIO        CLOUDY    65  59  81 NW12      30.13F
EL PASO        CLOUDY    57  44  62 E3        30.25F
HOUSTON INT    CLOUDY    73  71  93 N10       30.01F
LUBBOCK        CLOUDY    52  45  77 W6        30.24F
SAN ANGELO     CLOUDY    63  50  62 NW8       30.18F
SAN ANTONIO    CLOUDY    66  61  84 N7        30.08F
WACO           CLOUDY    67  62  84 N5        30.10F
WICHITA FALLS  NOT AVBL
$$
...OTHER LOCATIONS IN NEW MEXICO...

CITY           SKY/WX    TMP DP  RH WIND       PRES   REMARKS
ALAMAGORDO     CLOUDY    52  52 100 N5          N/A
ALBUQUERQUE    MOCLDY    56  34  43 N8        30.32F
CANNON AFB     CLEAR     52  41  66 NW8       30.28F
CLOVIS         CLOUDY    48  39  71 NW5       30.27F
HOLLOMAN AFB   CLEAR     53  53 100 E3        30.25F
ROSWELL        CLOUDY    55  50  83 CALM      30.26F
RUIDOSO        CLOUDY    48  39  71 SW5       30.38F
SANTA FE       CLOUDY    40  33  76 N7        30.37F WCI  35
TRUTH OR CONSE CLOUDY    54  51  90 CALM      30.29F
TUCUMCARI      CLEAR     48  36  63 W6        30.27F
$$

USA.gov is the U.S. government's official web portal to all federal, state and local government web resources and services.